DAL449 KLAX-KBNA

Flight info

Callsign DAL449
Flight time N/A
Altitude 35000
Route DOTSS2 CLEEE PKE J96 LANCY KEYKE INW KA36Y TUL LOPPY CHSNE3
Aircraft A321/M-SDE3FGHIRWY/LB1

Departure

Time 2026-05-05 13:13
Airport Los Angeles International Airport (KLAX)

Arrival

Time N/A
Airport Nashville International Airport (KBNA)
Time Latitude Longitude Altitude Speed Heading
2026-05-05 13:04 33.94662 -118.40489 127 ft 0 kts 117°
2026-05-05 13:07 33.94663 -118.40489 125 ft 0 kts 117°
2026-05-05 13:08 33.94663 -118.40491 125 ft 3 kts 117°
2026-05-05 13:08 33.94670 -118.40513 120 ft 3 kts 92°
2026-05-05 13:08 33.94668 -118.40536 121 ft 3 kts 62°
2026-05-05 13:08 33.94656 -118.40554 120 ft 3 kts 32°
2026-05-05 13:09 33.94639 -118.40564 122 ft 3 kts
2026-05-05 13:09 33.94630 -118.40564 121 ft 0 kts 349°
2026-05-05 13:10 33.94668 -118.40572 123 ft 9 kts 351°
2026-05-05 13:10 33.94740 -118.40582 123 ft 11 kts 354°
2026-05-05 13:11 33.94844 -118.40594 123 ft 17 kts 15°
2026-05-05 13:11 33.94875 -118.40486 125 ft 17 kts 81°
2026-05-05 13:11 33.94895 -118.40312 125 ft 21 kts 82°
2026-05-05 13:11 33.94913 -118.40143 124 ft 19 kts 83°
2026-05-05 13:12 33.94923 -118.40039 125 ft 18 kts 83°
2026-05-05 13:12 33.94968 -118.39918 123 ft 15 kts 25°
2026-05-05 13:12 33.95040 -118.39973 124 ft 13 kts 268°
2026-05-05 13:12 33.95026 -118.40115 125 ft 34 kts 263°
2026-05-05 13:13 33.94962 -118.40728 120 ft 110 kts 263°
2026-05-05 13:13 33.94840 -118.41895 162 ft 165 kts 263°
2026-05-05 13:13 33.94678 -118.43310 812 ft 171 kts 262°
2026-05-05 13:13 33.94516 -118.44803 1355 ft 187 kts 263°
2026-05-05 13:14 33.94361 -118.46431 1511 ft 204 kts 264°
2026-05-05 13:14 33.94262 -118.48213 1648 ft 223 kts 268°
2026-05-05 13:14 33.94206 -118.50178 1813 ft 245 kts 269°
2026-05-05 13:14 33.94120 -118.52267 2365 ft 253 kts 266°
2026-05-05 13:15 33.93976 -118.54385 3074 ft 255 kts 264°
2026-05-05 13:15 33.93515 -118.56446 3739 ft 259 kts 242°
2026-05-05 13:15 33.92354 -118.58098 4399 ft 263 kts 216°
2026-05-05 13:15 33.90664 -118.58955 5043 ft 269 kts 189°
2026-05-05 13:16 33.88789 -118.58787 5667 ft 275 kts 165°
2026-05-05 13:16 33.86942 -118.58145 6324 ft 278 kts 165°
2026-05-05 13:16 33.85082 -118.57479 6935 ft 280 kts 165°
2026-05-05 13:16 33.83202 -118.56809 7536 ft 283 kts 165°
2026-05-05 13:17 33.81305 -118.56141 8141 ft 286 kts 165°
2026-05-05 13:17 33.79384 -118.55465 8741 ft 289 kts 166°
2026-05-05 13:17 33.77445 -118.54784 9334 ft 292 kts 166°
2026-05-05 13:17 33.75487 -118.54099 9924 ft 295 kts 166°
2026-05-05 13:18 33.73510 -118.53305 10232 ft 309 kts 156°
2026-05-05 13:18 33.71647 -118.51864 10365 ft 329 kts 141°
2026-05-05 13:18 33.69988 -118.49858 10490 ft 348 kts 130°
2026-05-05 13:18 33.68583 -118.47407 10621 ft 366 kts 120°
2026-05-05 13:19 33.67521 -118.44560 10733 ft 382 kts 110°
2026-05-05 13:19 33.66610 -118.41496 10886 ft 396 kts 110°
2026-05-05 13:19 33.65674 -118.38354 11252 ft 403 kts 110°
2026-05-05 13:19 33.64857 -118.35127 11728 ft 406 kts 102°
2026-05-05 13:20 33.64476 -118.31767 12222 ft 408 kts 92°
2026-05-05 13:20 33.64455 -118.28356 12707 ft 410 kts 90°
2026-05-05 13:20 33.64462 -118.24919 13191 ft 413 kts 90°
2026-05-05 13:20 33.64470 -118.21459 13668 ft 415 kts 90°
2026-05-05 13:21 33.64474 -118.17989 14105 ft 418 kts 90°
2026-05-05 13:21 33.64475 -118.14492 14491 ft 420 kts 90°
2026-05-05 13:21 33.64475 -118.10976 14904 ft 422 kts 90°
2026-05-05 13:21 33.64470 -118.07443 15312 ft 425 kts 90°
2026-05-05 13:22 33.64462 -118.03890 15715 ft 427 kts 90°
2026-05-05 13:22 33.64454 -118.00314 16155 ft 429 kts 90°
2026-05-05 13:22 33.64450 -117.96721 16553 ft 432 kts 90°
2026-05-05 13:22 33.64449 -117.93105 16953 ft 434 kts 90°
2026-05-05 13:23 33.64446 -117.89476 17350 ft 436 kts 90°
2026-05-05 13:23 33.64437 -117.85821 17740 ft 439 kts 91°
2026-05-05 13:23 33.64425 -117.82150 18131 ft 441 kts 90°
2026-05-05 13:23 33.64661 -117.78469 18498 ft 444 kts 81°
2026-05-05 13:24 33.65315 -117.74832 18830 ft 447 kts 77°
2026-05-05 13:24 33.66030 -117.71196 19170 ft 449 kts 77°
2026-05-05 13:24 33.66743 -117.67540 19514 ft 451 kts 77°
2026-05-05 13:24 33.67452 -117.63865 19836 ft 453 kts 77°
2026-05-05 13:25 33.68158 -117.60162 20178 ft 456 kts 78°
2026-05-05 13:25 33.68862 -117.56447 20506 ft 458 kts 78°
2026-05-05 13:25 33.69571 -117.52707 20837 ft 460 kts 78°
2026-05-05 13:25 33.70283 -117.48956 21152 ft 462 kts 78°
2026-05-05 13:26 33.71001 -117.45183 21467 ft 464 kts 78°
2026-05-05 13:26 33.71723 -117.41390 21749 ft 467 kts 78°
2026-05-05 13:26 33.72446 -117.37582 22058 ft 469 kts 78°
2026-05-05 13:26 33.73173 -117.33755 22368 ft 471 kts 78°
2026-05-05 13:27 33.73903 -117.29907 22677 ft 473 kts 78°
2026-05-05 13:27 33.74627 -117.26047 22966 ft 475 kts 80°
2026-05-05 13:27 33.75050 -117.22107 23245 ft 476 kts 89°
2026-05-05 13:27 33.75043 -117.18133 23554 ft 476 kts 94°
2026-05-05 13:28 33.74948 -117.14146 23796 ft 479 kts 93°
2026-05-05 13:28 33.74862 -117.10135 24028 ft 481 kts 93°
2026-05-05 13:28 33.74779 -117.06106 24254 ft 484 kts 94°
2026-05-05 13:28 33.74695 -117.02050 24474 ft 486 kts 94°
2026-05-05 13:29 33.74610 -116.97985 24767 ft 487 kts 94°
2026-05-05 13:29 33.74526 -116.93919 25061 ft 488 kts 94°
2026-05-05 13:29 33.74440 -116.89842 25343 ft 488 kts 94°
2026-05-05 13:29 33.74353 -116.85760 25619 ft 489 kts 94°
2026-05-05 13:30 33.74264 -116.81671 25896 ft 490 kts 95°
2026-05-05 13:30 33.74169 -116.77570 26184 ft 491 kts 95°
2026-05-05 13:30 33.74069 -116.73460 26421 ft 493 kts 95°
2026-05-05 13:30 33.73968 -116.69341 26693 ft 494 kts 95°
2026-05-05 13:31 33.73867 -116.65220 26962 ft 495 kts 95°
2026-05-05 13:31 33.73766 -116.61077 27183 ft 496 kts 96°
2026-05-05 13:31 33.73663 -116.56930 27369 ft 497 kts 96°
2026-05-05 13:31 33.73559 -116.52776 27568 ft 499 kts 96°
2026-05-05 13:32 33.73454 -116.48606 27825 ft 500 kts 96°
2026-05-05 13:32 33.73347 -116.44424 28050 ft 502 kts 96°
2026-05-05 13:32 33.73240 -116.40227 28285 ft 503 kts 96°
2026-05-05 13:32 33.73134 -116.36028 28536 ft 504 kts 97°
2026-05-05 13:33 33.73026 -116.31816 28763 ft 505 kts 97°
2026-05-05 13:33 33.72913 -116.27594 28991 ft 506 kts 97°
2026-05-05 13:33 33.72796 -116.23369 29214 ft 507 kts 97°
2026-05-05 13:33 33.72677 -116.19129 29438 ft 508 kts 98°
2026-05-05 13:34 33.72556 -116.14887 29659 ft 509 kts 98°
2026-05-05 13:34 33.72484 -116.10624 29890 ft 514 kts 94°
2026-05-05 13:34 33.72861 -116.06326 30082 ft 522 kts 84°
2026-05-05 13:34 33.73796 -116.02084 30261 ft 529 kts 75°
2026-05-05 13:35 33.74977 -115.97896 30434 ft 530 kts 75°
2026-05-05 13:35 33.76136 -115.93752 30623 ft 531 kts 75°
2026-05-05 13:35 33.77304 -115.89545 30808 ft 531 kts 75°
2026-05-05 13:35 33.78469 -115.85322 30984 ft 532 kts 75°
2026-05-05 13:36 33.79633 -115.81095 31165 ft 533 kts 76°
2026-05-05 13:36 33.80793 -115.76866 31345 ft 533 kts 76°
2026-05-05 13:36 33.81955 -115.72626 31526 ft 534 kts 76°
2026-05-05 13:36 33.83123 -115.68384 31704 ft 535 kts 76°
2026-05-05 13:37 33.84292 -115.64137 31870 ft 536 kts 76°
2026-05-05 13:37 33.85463 -115.59879 32034 ft 537 kts 76°
2026-05-05 13:37 33.86635 -115.55613 32206 ft 538 kts 76°
2026-05-05 13:37 33.87812 -115.51330 32357 ft 539 kts 76°
2026-05-05 13:38 33.88984 -115.47045 32507 ft 539 kts 76°
2026-05-05 13:38 33.90153 -115.42758 32646 ft 541 kts 76°
2026-05-05 13:38 33.91327 -115.38442 32802 ft 542 kts 76°
2026-05-05 13:38 33.92497 -115.34135 32968 ft 543 kts 76°
2026-05-05 13:39 33.93671 -115.29812 33103 ft 543 kts 76°
2026-05-05 13:39 33.94848 -115.25476 33242 ft 544 kts 76°
2026-05-05 13:39 33.96024 -115.21135 33376 ft 546 kts 76°
2026-05-05 13:39 33.97202 -115.16786 33541 ft 546 kts 76°
2026-05-05 13:40 33.98379 -115.12427 33700 ft 547 kts 77°
2026-05-05 13:40 33.99551 -115.08064 33832 ft 548 kts 77°
2026-05-05 13:40 34.00725 -115.03687 33955 ft 549 kts 77°
2026-05-05 13:40 34.01899 -114.99305 34060 ft 550 kts 77°
2026-05-05 13:41 34.03075 -114.94918 34234 ft 548 kts 77°
2026-05-05 13:41 34.04243 -114.90584 34670 ft 541 kts 77°
2026-05-05 13:41 34.05403 -114.86279 34846 ft 538 kts 77°
2026-05-05 13:41 34.06554 -114.81990 34902 ft 536 kts 77°
2026-05-05 13:42 34.08831 -114.73433 34904 ft 536 kts 77°
2026-05-05 13:42 34.11111 -114.64872 34902 ft 537 kts 77°
2026-05-05 13:43 34.13512 -114.56321 34900 ft 539 kts 76°
2026-05-05 13:43 34.15971 -114.47770 34902 ft 540 kts 76°
2026-05-05 13:44 34.18407 -114.39190 34897 ft 540 kts 76°
2026-05-05 13:44 34.20810 -114.30583 34899 ft 541 kts 77°
2026-05-05 13:45 34.23212 -114.21963 34896 ft 542 kts 77°
2026-05-05 13:45 34.25618 -114.13331 34892 ft 542 kts 77°
2026-05-05 13:46 34.28004 -114.04676 34892 ft 542 kts 77°
2026-05-05 13:46 34.30307 -113.95963 34903 ft 547 kts 78°
2026-05-05 13:47 34.32591 -113.87127 34908 ft 555 kts 78°
2026-05-05 13:47 34.34931 -113.78167 34908 ft 560 kts 78°
2026-05-05 13:48 34.37306 -113.69168 34905 ft 562 kts 78°
2026-05-05 13:48 34.39673 -113.60160 34905 ft 562 kts 78°
2026-05-05 13:49 34.42018 -113.51133 34905 ft 562 kts 78°
2026-05-05 13:49 34.44355 -113.42102 34904 ft 562 kts 78°
2026-05-05 13:50 34.46291 -113.34575 34886 ft 564 kts 78°
2026-05-05 13:50 34.48637 -113.25491 34881 ft 566 kts 78°
2026-05-05 13:51 34.50987 -113.16376 34882 ft 567 kts 78°
2026-05-05 13:51 34.53329 -113.07233 34888 ft 568 kts 78°
2026-05-05 13:52 34.55666 -112.98062 34901 ft 569 kts 78°
2026-05-05 13:52 34.57990 -112.88882 34903 ft 569 kts 78°
2026-05-05 13:53 34.60312 -112.79705 34923 ft 569 kts 78°
2026-05-05 13:53 34.62635 -112.70519 34947 ft 569 kts 78°
2026-05-05 13:54 34.64951 -112.61321 34988 ft 569 kts 78°
2026-05-05 13:54 34.67257 -112.52106 35005 ft 569 kts 78°
2026-05-05 13:55 34.69555 -112.42899 35010 ft 569 kts 78°
2026-05-05 13:55 34.71849 -112.33689 35013 ft 569 kts 78°
2026-05-05 13:56 34.74132 -112.24477 34995 ft 569 kts 78°
2026-05-05 13:56 34.76401 -112.15261 34970 ft 568 kts 79°
2026-05-05 13:57 34.78664 -112.06051 34976 ft 568 kts 78°
2026-05-05 13:57 34.80924 -111.96851 35002 ft 568 kts 78°
2026-05-05 13:58 34.83183 -111.87639 35021 ft 567 kts 78°
2026-05-05 13:58 34.85418 -111.78491 35019 ft 567 kts 79°
2026-05-05 13:59 34.88747 -111.64686 35015 ft 566 kts 79°
2026-05-05 14:00 34.92076 -111.50875 34983 ft 566 kts 79°
2026-05-05 14:00 34.94282 -111.41677 34982 ft 566 kts 79°
2026-05-05 14:01 34.96360 -111.32439 34964 ft 563 kts 82°
2026-05-05 14:01 34.98079 -111.23140 34947 ft 562 kts 84°
2026-05-05 14:02 34.99706 -111.13823 34950 ft 562 kts 84°
2026-05-05 14:02 35.01437 -111.04510 34959 ft 563 kts 83°
2026-05-05 14:03 35.03229 -110.95207 34970 ft 563 kts 83°
2026-05-05 14:03 35.04991 -110.85893 34999 ft 563 kts 83°
2026-05-05 14:04 35.06668 -110.76561 34994 ft 562 kts 85°
2026-05-05 14:04 35.08073 -110.67177 34995 ft 561 kts 87°
2026-05-05 14:05 35.09313 -110.57777 34985 ft 561 kts 87°
2026-05-05 14:05 35.10586 -110.48371 34962 ft 562 kts 86°
2026-05-05 14:06 35.11925 -110.38958 34940 ft 563 kts 86°
2026-05-05 14:06 35.13281 -110.29536 34928 ft 563 kts 86°
2026-05-05 14:07 35.14610 -110.20095 34919 ft 563 kts 86°
2026-05-05 14:07 35.15910 -110.10662 34923 ft 563 kts 86°
2026-05-05 14:08 35.17209 -110.01220 34923 ft 563 kts 86°
2026-05-05 14:08 35.18510 -109.91769 34928 ft 563 kts 86°
2026-05-05 14:09 35.19805 -109.82320 34931 ft 564 kts 86°
2026-05-05 14:09 35.21086 -109.72860 34936 ft 564 kts 87°
2026-05-05 14:10 35.22359 -109.63395 34936 ft 564 kts 87°
2026-05-05 14:10 35.23628 -109.53925 34934 ft 564 kts 87°
2026-05-05 14:11 35.24894 -109.44450 34935 ft 564 kts 86°
2026-05-05 14:11 35.26154 -109.34973 34939 ft 564 kts 87°
2026-05-05 14:12 35.27401 -109.25494 34957 ft 564 kts 87°
2026-05-05 14:12 35.28636 -109.16020 34977 ft 563 kts 87°
2026-05-05 14:13 35.29862 -109.06557 34987 ft 563 kts 87°
2026-05-05 14:13 35.31080 -108.97090 34994 ft 563 kts 86°
2026-05-05 14:14 35.32295 -108.87620 35015 ft 562 kts 86°
2026-05-05 14:14 35.33504 -108.78167 35026 ft 562 kts 86°
2026-05-05 14:15 35.34710 -108.68724 35026 ft 561 kts 86°
2026-05-05 14:15 35.35906 -108.59268 35010 ft 561 kts 86°
2026-05-05 14:16 35.37079 -108.49827 34982 ft 560 kts 86°
2026-05-05 14:16 35.38246 -108.40386 34955 ft 560 kts 86°
2026-05-05 14:17 35.39410 -108.30938 34948 ft 561 kts 86°
2026-05-05 14:17 35.40568 -108.21488 34954 ft 561 kts 86°
2026-05-05 14:18 35.41722 -108.12030 34969 ft 561 kts 86°
2026-05-05 14:18 35.42863 -108.02556 34982 ft 562 kts 86°
2026-05-05 14:19 35.44000 -107.93082 34984 ft 562 kts 86°
2026-05-05 14:19 35.45139 -107.83600 34975 ft 562 kts 86°
2026-05-05 14:20 35.46267 -107.74119 34954 ft 562 kts 86°
2026-05-05 14:20 35.47379 -107.64630 34929 ft 562 kts 86°
2026-05-05 14:21 35.48491 -107.55131 34926 ft 562 kts 86°
2026-05-05 14:21 35.49592 -107.45632 34917 ft 562 kts 86°
2026-05-05 14:22 35.50690 -107.36128 34911 ft 562 kts 86°
2026-05-05 14:22 35.51769 -107.26618 34910 ft 563 kts 86°
2026-05-05 14:23 35.52839 -107.17103 34900 ft 562 kts 86°
2026-05-05 14:23 35.53913 -107.07591 34895 ft 563 kts 86°
2026-05-05 14:24 35.54980 -106.98071 34887 ft 563 kts 86°
2026-05-05 14:24 35.56047 -106.88546 34888 ft 563 kts 86°
2026-05-05 14:25 35.57108 -106.79024 34888 ft 563 kts 86°
2026-05-05 14:25 35.58149 -106.69492 34887 ft 563 kts 86°
2026-05-05 14:26 35.59185 -106.59962 34880 ft 563 kts 86°
2026-05-05 14:26 35.60207 -106.50439 34886 ft 563 kts 86°
2026-05-05 14:27 35.61231 -106.40897 34929 ft 563 kts 86°
2026-05-05 14:27 35.62244 -106.31354 34973 ft 563 kts 86°
2026-05-05 14:28 35.63081 -106.23423 35011 ft 563 kts 86°
2026-05-05 14:28 35.64079 -106.13873 35023 ft 563 kts 86°
2026-05-05 14:29 35.65074 -106.04313 35023 ft 564 kts 86°
2026-05-05 14:29 35.66056 -105.94753 35004 ft 564 kts 87°
2026-05-05 14:30 35.67036 -105.85195 34962 ft 563 kts 86°
2026-05-05 14:30 35.68011 -105.75638 34922 ft 563 kts 86°
2026-05-05 14:31 35.68974 -105.66079 34884 ft 562 kts 87°
2026-05-05 14:31 35.69930 -105.56534 34884 ft 563 kts 86°
2026-05-05 14:32 35.70878 -105.46984 34915 ft 562 kts 87°
2026-05-05 14:32 35.71810 -105.37429 34954 ft 563 kts 87°
2026-05-05 14:33 35.72730 -105.27871 34990 ft 563 kts 87°
2026-05-05 14:33 35.73659 -105.18295 35012 ft 563 kts 87°
2026-05-05 14:34 35.74585 -105.08724 35003 ft 564 kts 87°
2026-05-05 14:34 35.75504 -104.99138 34959 ft 564 kts 87°
2026-05-05 14:35 35.76411 -104.89538 34882 ft 564 kts 87°
2026-05-05 14:35 35.77297 -104.79939 34819 ft 565 kts 87°
2026-05-05 14:36 35.78180 -104.70329 34777 ft 565 kts 87°
2026-05-05 14:36 35.79063 -104.60721 34777 ft 565 kts 87°
2026-05-05 14:37 35.79933 -104.51169 34784 ft 565 kts 87°
2026-05-05 14:37 35.80797 -104.41538 34791 ft 565 kts 87°
2026-05-05 14:38 35.81658 -104.31913 34803 ft 566 kts 87°
2026-05-05 14:38 35.82509 -104.22281 34804 ft 565 kts 87°
2026-05-05 14:39 35.83360 -104.12640 34814 ft 565 kts 87°
2026-05-05 14:39 35.84200 -104.03009 34821 ft 565 kts 87°
2026-05-05 14:40 35.85028 -103.93373 34825 ft 565 kts 87°
2026-05-05 14:40 35.85842 -103.83742 34827 ft 565 kts 87°
2026-05-05 14:41 35.86648 -103.74111 34829 ft 565 kts 87°
2026-05-05 14:41 35.87458 -103.64477 34828 ft 565 kts 87°
2026-05-05 14:42 35.88268 -103.54834 34835 ft 565 kts 87°
2026-05-05 14:42 35.89066 -103.45190 34833 ft 566 kts 87°
2026-05-05 14:43 35.89842 -103.35540 34841 ft 566 kts 87°
2026-05-05 14:43 35.90609 -103.25879 34839 ft 566 kts 87°
2026-05-05 14:44 35.91376 -103.16223 34838 ft 566 kts 87°
2026-05-05 14:44 35.92139 -103.06558 34842 ft 566 kts 87°
2026-05-05 14:45 35.92892 -102.96947 34844 ft 566 kts 87°
2026-05-05 14:45 35.93643 -102.87274 34888 ft 567 kts 87°
2026-05-05 14:46 35.94376 -102.77592 34932 ft 567 kts 87°
2026-05-05 14:46 35.95103 -102.67901 34969 ft 567 kts 87°
2026-05-05 14:47 35.95827 -102.58217 34995 ft 567 kts 87°
2026-05-05 14:47 35.96546 -102.48518 34994 ft 567 kts 87°
2026-05-05 14:48 35.97255 -102.38802 34962 ft 568 kts 87°
2026-05-05 14:48 35.97953 -102.29080 34918 ft 568 kts 87°
2026-05-05 14:49 35.98642 -102.19361 34911 ft 569 kts 87°
2026-05-05 14:49 35.99333 -102.09622 34931 ft 569 kts 87°
2026-05-05 14:50 36.00014 -101.99875 34934 ft 570 kts 88°
2026-05-05 14:50 36.00615 -101.90122 34917 ft 570 kts 88°
2026-05-05 14:51 36.01140 -101.80352 34891 ft 570 kts 89°
2026-05-05 14:51 36.01654 -101.70582 34855 ft 570 kts 88°
2026-05-05 14:52 36.02189 -101.60810 34828 ft 571 kts 88°
2026-05-05 14:52 36.02720 -101.51030 34833 ft 571 kts 88°
2026-05-05 14:53 36.03238 -101.41303 34836 ft 571 kts 88°
2026-05-05 14:53 36.03752 -101.31505 34839 ft 571 kts 88°
2026-05-05 14:54 36.04257 -101.21710 34828 ft 572 kts 88°
2026-05-05 14:54 36.04752 -101.11891 34832 ft 572 kts 88°
2026-05-05 14:55 36.05244 -101.02069 34833 ft 573 kts 88°
2026-05-05 14:55 36.05724 -100.92238 34823 ft 574 kts 88°
2026-05-05 14:56 36.06198 -100.82382 34822 ft 574 kts 88°
2026-05-05 14:56 36.06667 -100.72521 34842 ft 575 kts 88°
2026-05-05 14:57 36.07123 -100.62652 34858 ft 575 kts 88°
2026-05-05 14:57 36.07574 -100.52777 34869 ft 576 kts 88°
2026-05-05 14:58 36.08019 -100.42888 34876 ft 576 kts 88°
2026-05-05 14:58 36.08455 -100.32998 34869 ft 577 kts 89°
2026-05-05 14:59 36.08881 -100.23087 34852 ft 577 kts 89°
2026-05-05 14:59 36.09301 -100.13171 34828 ft 578 kts 89°
2026-05-05 15:00 36.09647 -100.04855 34825 ft 578 kts 89°
2026-05-05 15:00 36.10119 -99.93308 34860 ft 579 kts 88°
2026-05-05 15:01 36.10511 -99.83373 34872 ft 579 kts 88°
2026-05-05 15:01 36.10898 -99.73417 34876 ft 579 kts 88°
2026-05-05 15:02 36.11281 -99.63480 34861 ft 579 kts 89°
2026-05-05 15:02 36.11645 -99.53538 34835 ft 579 kts 89°
2026-05-05 15:03 36.12003 -99.43593 34793 ft 579 kts 88°
2026-05-05 15:03 36.12357 -99.33641 34778 ft 579 kts 89°
2026-05-05 15:04 36.12706 -99.23686 34764 ft 580 kts 89°
2026-05-05 15:04 36.13051 -99.13721 34760 ft 580 kts 88°
2026-05-05 15:05 36.13551 -98.98744 34774 ft 581 kts 89°
2026-05-05 15:06 36.13867 -98.88757 34769 ft 581 kts 89°
2026-05-05 15:06 36.14176 -98.78759 34770 ft 581 kts 89°
2026-05-05 15:07 36.14475 -98.68762 34763 ft 582 kts 89°
2026-05-05 15:07 36.14772 -98.58760 34770 ft 582 kts 89°
2026-05-05 15:08 36.15057 -98.48752 34773 ft 582 kts 89°
2026-05-05 15:08 36.15332 -98.38799 34769 ft 582 kts 89°
2026-05-05 15:09 36.15602 -98.28782 34759 ft 583 kts 89°
2026-05-05 15:09 36.15824 -98.20392 34744 ft 583 kts 89°
2026-05-05 15:10 36.16117 -98.08731 34751 ft 583 kts 88°
2026-05-05 15:10 36.16324 -98.00318 34764 ft 584 kts 88°
2026-05-05 15:11 36.16568 -97.90267 34770 ft 584 kts 88°
2026-05-05 15:11 36.16798 -97.80219 34772 ft 584 kts 88°
2026-05-05 15:12 36.17021 -97.70165 34787 ft 584 kts 88°
2026-05-05 15:12 36.17231 -97.60107 34777 ft 584 kts 88°
2026-05-05 15:13 36.17438 -97.50063 34750 ft 585 kts 88°
2026-05-05 15:13 36.17633 -97.39985 34746 ft 585 kts 88°
2026-05-05 15:14 36.17819 -97.29930 34767 ft 585 kts 88°
2026-05-05 15:14 36.18001 -97.19863 34785 ft 585 kts 88°
2026-05-05 15:15 36.18176 -97.09802 34784 ft 585 kts 89°
2026-05-05 15:15 36.18336 -96.99729 34782 ft 585 kts 89°
2026-05-05 15:16 36.18488 -96.89659 34767 ft 585 kts 89°
2026-05-05 15:16 36.18638 -96.79588 34757 ft 585 kts 88°
2026-05-05 15:17 36.18779 -96.69520 34746 ft 585 kts 89°
2026-05-05 15:17 36.18909 -96.59446 34752 ft 585 kts 89°
2026-05-05 15:18 36.19029 -96.49374 34757 ft 585 kts 89°
2026-05-05 15:18 36.19137 -96.39305 34765 ft 585 kts 89°
2026-05-05 15:19 36.19238 -96.29229 34766 ft 585 kts 89°
2026-05-05 15:19 36.19335 -96.19156 34770 ft 585 kts 89°
2026-05-05 15:20 36.19428 -96.09083 34789 ft 585 kts 89°
2026-05-05 15:20 36.19507 -95.99010 34792 ft 585 kts 89°
2026-05-05 15:21 36.19574 -95.88936 34785 ft 585 kts 89°
2026-05-05 15:21 36.19617 -95.78857 34792 ft 586 kts 90°
2026-05-05 15:22 36.19393 -95.68778 34786 ft 586 kts 93°
2026-05-05 15:22 36.18864 -95.58715 34776 ft 586 kts 94°
2026-05-05 15:23 36.18303 -95.48669 34775 ft 585 kts 94°
2026-05-05 15:23 36.17842 -95.38604 34776 ft 586 kts 93°
2026-05-05 15:24 36.17423 -95.28535 34776 ft 585 kts 93°
2026-05-05 15:24 36.16980 -95.18482 34770 ft 585 kts 93°
2026-05-05 15:25 36.16493 -95.08429 34765 ft 585 kts 93°
2026-05-05 15:25 36.16005 -94.98379 34772 ft 585 kts 93°
2026-05-05 15:26 36.15523 -94.88331 34774 ft 585 kts 93°
2026-05-05 15:26 36.15024 -94.78296 34789 ft 584 kts 93°
2026-05-05 15:27 36.14506 -94.68259 34797 ft 584 kts 93°
2026-05-05 15:27 36.13991 -94.58295 34801 ft 584 kts 93°
2026-05-05 15:28 36.13469 -94.48269 34803 ft 584 kts 93°
2026-05-05 15:28 36.12942 -94.38257 34799 ft 583 kts 93°
2026-05-05 15:29 36.12400 -94.28189 34802 ft 583 kts 93°
2026-05-05 15:29 36.11845 -94.18187 34811 ft 582 kts 93°
2026-05-05 15:30 36.11290 -94.08196 34805 ft 582 kts 93°
2026-05-05 15:30 36.10726 -93.98220 34795 ft 582 kts 93°
2026-05-05 15:31 36.10156 -93.88249 34792 ft 581 kts 93°
2026-05-05 15:31 36.09578 -93.78272 34792 ft 582 kts 93°
2026-05-05 15:32 36.08991 -93.68299 34798 ft 582 kts 93°
2026-05-05 15:32 36.08389 -93.58323 34806 ft 582 kts 94°
2026-05-05 15:33 36.07777 -93.48352 34813 ft 581 kts 94°
2026-05-05 15:33 36.07169 -93.38386 34819 ft 581 kts 93°
2026-05-05 15:34 36.06558 -93.28427 34822 ft 581 kts 93°
2026-05-05 15:34 36.05930 -93.18470 34831 ft 581 kts 93°
2026-05-05 15:35 36.05288 -93.08523 34830 ft 580 kts 93°
2026-05-05 15:35 36.04639 -92.98589 34827 ft 580 kts 94°
2026-05-05 15:36 36.03985 -92.88659 34827 ft 580 kts 93°
2026-05-05 15:36 36.03324 -92.78736 34837 ft 579 kts 93°
2026-05-05 15:37 36.02653 -92.68825 34841 ft 579 kts 93°
2026-05-05 15:37 36.01982 -92.58924 34843 ft 578 kts 93°
2026-05-05 15:38 36.01308 -92.49025 34843 ft 578 kts 93°
2026-05-05 15:38 36.00625 -92.39141 34842 ft 578 kts 93°
2026-05-05 15:39 35.99915 -92.29262 34842 ft 577 kts 93°
2026-05-05 15:39 35.99201 -92.19408 34845 ft 576 kts 94°
2026-05-05 15:40 35.98486 -92.09558 34850 ft 576 kts 93°
2026-05-05 15:40 35.97774 -91.99706 34849 ft 575 kts 93°
2026-05-05 15:41 35.97046 -91.89881 34853 ft 574 kts 94°
2026-05-05 15:41 35.96316 -91.80130 34856 ft 573 kts 93°
2026-05-05 15:42 35.95579 -91.70341 34865 ft 572 kts 94°
2026-05-05 15:42 35.94828 -91.60563 34867 ft 572 kts 94°
2026-05-05 15:43 35.94069 -91.50803 34869 ft 571 kts 94°
2026-05-05 15:43 35.93307 -91.41060 34867 ft 570 kts 94°
2026-05-05 15:44 35.92540 -91.31317 34870 ft 570 kts 94°
2026-05-05 15:44 35.91771 -91.21599 34878 ft 569 kts 94°
2026-05-05 15:45 35.90994 -91.11899 34876 ft 568 kts 94°
2026-05-05 15:45 35.90204 -91.02223 34884 ft 567 kts 94°
2026-05-05 15:46 35.89402 -90.92549 34886 ft 566 kts 94°
2026-05-05 15:46 35.88595 -90.82880 34886 ft 566 kts 94°
2026-05-05 15:47 35.87793 -90.73242 34881 ft 565 kts 94°
2026-05-05 15:47 35.86986 -90.63612 34885 ft 564 kts 94°
2026-05-05 15:48 35.86165 -90.53999 34886 ft 564 kts 94°